Погода в Ереване

Погода в Ереване : погода сейчас, прогноз погоды и архив. Всё, что Вы хотите узнать о погоде в Ереване!

Поиск расширенной информации на нашем сайте:

Другие новости

Новости СМИ2

Главная страница сайта

Новости сайта

03.07.2017

Напоминаем, что на нашем специализированном сайте Метеоцентр.Азия вы можете получить высокодетализированные автоматические прогнозы погоды по пунктам России, СНГ и мира в авиационном формате (включающие направление и скорость ветра, видимость, явления погоды, количество и форму облачности, нижнюю и верхнюю границу облачности).

Рекомендуем: Порекомендовали элькарнитин цена и я похудела на 10 кг!

Погода в Ереване - сегодня

Время (UTC), дата Ветер
(°,м/с) 
Видим.   Явления Облачность Т
(°С)
Тd
(°С)
f(%) Тe
(°С)
Pmin
(гПа)
dP
(гПа)
Po
(мм)
O2
(г/м3)
Тmin Tmax R s Состояние
почвы
12 11.12.17 230 (ЮЗ) 4000 м  дымка  3/0 верхняя 
[Ci fib]
+5.2 -1.6 61 +5  1028  -1.5  695  275           
15 11.12.17 360 (С) 4000 м  дымка  3/0 средняя 
[Ac trans]
+0.2 -2.5 82 +1  1032.2  1.6  696  281           
18 11.12.17 110 (В) 2000 м  дымка  ясно 
-1.8 -4 85 -1  1034.3  1.7  698  283    +6.1       
21 11.12.17 080 (В) 2000 м  дымка  ясно 
-3.6 -4.6 93 -3  1035.2  0.1  698  285           
00 12.12.17 030 (СВ) 2000 м  дымка  5/0 верхняя 
[Ci fib]
-4.4 -5.3 93 -4  1036.1  0.5  698  286           
03 12.12.17 050 (СВ) 2000 м  дымка  ясно 
-5.6 -6.7 92 -5  1036.9  0.2  698  288           
06 12.12.17 тихо ()   2000 м  дымка  ясно 
-2.1 -3.7 89 -2  1035.7  0.4  698  284  -6.6         
09 12.12.17 260 (З) 2000 м  дымка  ясно 
+3.8 -0.8 72 +5  1032.9  -0.5  698  277           
12 12.12.17 160 (Ю) 4000 м  дымка  ясно 
+6.6 -2.1 54 +8  1029.9  -1.8  697  274           
15 12.12.17 350 (С) 4000 м  дымка  ясно 
+0.4 -2.9 78 1032.6  0.4  697  281           
18 12.12.17 тихо ()   4000 м  дымка  ясно 
-1.8 -3.7 87 -2  1034.1  0.5  697  283    +6.8       
21 12.12.17 080 (В) 1000 м  дымка  ясно 
-4.3 -5.3 93 -4  1035.4  0.2  698  286           
00 13.12.17 тихо ()   1000 м  дымка  ясно 
+5.7 -7.1 39 +6  1035.2  -0.7  697  276           
03 13.12.17 тихо ()   1000 м  дымка  ясно 
-6.5 -8.1 88 -7  1035.4  -0.1  697  288           
06 13.12.17 тихо ()   1000 м  дымка  ясно 
-2.7 -4 91 -3  1034.2  0.3  697  284  -7.4         
09 13.12.17 тихо ()   2000 м  дымка  ясно 
+2.6 -1.3 75 +3  1030.3  -1.5  696  278           
12 13.12.17 150 (ЮВ) 4000 м  дымка  ясно 
+5.8 -1.5 59 +7  1026.7  -2.2  694  274           
15 13.12.17 010 (С) 4000 м  дымка  ясно 
+0.7 -1.9 83 +1  1028.8  0.1  695  279           
18 13.12.17 240 (ЮЗ) 2000 м  дымка  ясно 
-1.7 -3.9 85 -1  1029.9  -0.1  694  282    +6.2       
21 13.12.17 тихо ()   1000 м  дымка  ясно 
-4 -5.5 89 -4  1030.6  -0.4  694  284           
00 14.12.17 310 (СЗ) 1000 м  дымка  ясно 
-5.2 -6.6 90 -5  1030.2  -0.4  694  286           
03 14.12.17 250 (З) 2000 м  дымка  ясно 
-6.1 -7.2 92 -8  1030.1  -0.5  693  286           
06 14.12.17 тихо ()   2000 м  дымка  ясно 
-3.2 -4.6 90 -3  1029.6  0.8  694  283  -7.8         
09 14.12.17 140 (ЮВ) 2000 м  дымка  ясно 
+3.2 -2.2 68 +4  1025.6  -1.4  693  276           
12 14.12.17 тихо ()   20000 м  дымка  ясно 
+5.7 -2.3 56 +6  1022.6  -1.8  692  273           
Время (UTC), дата Ветер
(°,м/с) 
Видим.   Явления Облачность Т
(°С)
Тd
(°С)
f(%) Тe
(°С)
Pmin
(гПа)
dP
(гПа)
Po
(мм)
O2
(г/м3)
Тmin Tmax R s Состояние
почвы

Для получения пояснительной информации подведите курсор к названию столбца.

ПОГОДА в Ереване - архив

Всё, что Вы хотите узнать о погоде в Ереване - удобно и подробно!

Выберите нужную дату (начиная с 1 января 2015* года) и нажмите кнопку "Найти".
Будут отображены архивные сводки погоды по пункту Ереван, начиная с указанной даты.


Отображать данные в формате CSV (для использования в таблицах Excel)


Внимание! Наш архив погоды предназначен исключительно для личного некоммерческого использования в познавательных целях. Если Вам необходимы официальные справки о состоянии погоды (для производственных, юридических, коммерческих и т.п. целей), обращайтесь в органы Росгидромета.

*Примечание: данная дата относится к архиву по метеостанциям СССР (Россия, СНГ, Балтия).
Архив по метеостанциям Зарубежной Европы и Азии (кроме Китая) хранится 10 дней, по другим регионам земного шара (Китай, Африка, Америка, Австралия, Океания) - 1 день.

Ереван - район местоположения метеостанции


Название, широта, долгота, высота метеостанции:
Ереван (Звартноц) 40.1°ш. 44.4°д. 865 м над ур. моря [Армения]

Дополнительная информация

В oтличие oт бoльшинства пoгoдных сайтoв мы публикуем пoдрoбную метеoинфoрмацию в детальнoм прoфессиoнальнoм фoрмате.

Характеристики температуры и влажнoсти вoздуха измеряются на высoте 2 м в тени вдали oт зданий и деревьев.
Скoрoсть ветра измеряется на высoте 10 м (на урoвне рoста челoвека скoрoсть ветра ниже в 1.5-2 раза). Если метеoстанция нахoдится в гoрoде или в лесу, тo скoрoсть ветра занижена на 2-4 м/с пo сравнению с oткрытым местoм. Скoрoсть ветра над акватoриями крупных рек и oзёр, а также на вершинах хoлмoв на 2-5 м/с выше, чем в oбычных услoвиях.
Атмoсфернoе давление в разных тoчках местнoсти мoжет значительнo oтличаться oт давления на метеoстанции, в зависимoсти oт услoвий рельефа (при пoдъёме на 10 м давление пoнижается примернo на 1 мм рт.ст.).